User: anonymous   Login
Location: Peebles
(55.6412°N, 3.1714°W)
Time: 19:53:22
(UTC+00:00)
Language:

Envisat - Orbit

View from above orbital plane
View from above orbital plane
View from above satellite
View from above satellite

Ground track
Ground track

The orbit data is extracted from the following two-line orbital elements,

1 27386U 02009A   22338.44481164  .00000135  00000-0  57908-4 0  9999
2 27386  98.2055 311.7632 0001307  85.2023  85.0578 14.38192112 87898
Epoch (UTC): 04 December 2022 10:40:31
Eccentricity: 0.0001307
inclination: 98.2055°
perigee height: 763 km
apogee height: 765 km
right ascension of ascending node: 311.7632°
argument of perigee: 85.2023°
revolutions per day: 14.38192112
mean anomaly at epoch: 85.0578°
orbit number at epoch: 8789

The dashed part of the orbit path shows where the satellite is in the earth's shadow,  

DLR